Location: Newark
(50.4348°N, 30.5552°E)
Time: 05:07:31
(UTC+00:00)

Altair - Pass Details

Date: 22 January 2020
Orbit: 1502 x 1682 km, 47.2° (Epoch: 18 February)

Event Time Altitude Azimuth Distance (km) Brightness Sun altitude
Rises 11:11:27 0° 274° (W) 4,936 10.3 18.5°
Reaches altitude 10° 11:14:38 10° 273° (W) 3,948 9.9 18.4°
Maximum altitude 11:24:44 71° 192° (SSW) 1,748 8.5 17.9°
Drops below altitude 10° 11:34:35 10° 111° (ESE) 3,865 9.7 17.3°
Sets 11:37:41 0° 110° (ESE) 4,829 10.1 17.2°
